QPF
0.02 0.02 0.02 0.01 0.01 0.02 0.01 0.01 0.01 0.01 0.01 0.01 0.02 0.02 0.03 0.04 0.06 0.06 0.05 0.03 0.03 0.04 0.05 0.06 0.05 0.06 0.07 0.07 0.07 0.06 0.06 0.06 0.06 0.05 0.06 0.06 0.06 0.10 0.12 0.15 0.12 0.07 0.05
0.01 0.01 0.02 0.01 0.01 0.01 0.01 0.00 0.00 0.01 0.01 0.02 0.02 0.02 0.03 0.03 0.04 0.04 0.03 0.04 0.05 0.06 0.07 0.07 0.06 0.07 0.09 0.09 0.07 0.06 0.07 0.07 0.08 0.06 0.10 0.10 0.08 0.11 0.12 0.11 0.11 0.08 0.08
0.00 0.01 0.01 0.01 0.01 0.01 0.01 0.01 0.01 0.01 0.01 0.02 0.02 0.02 0.03 0.04 0.04 0.03 0.03 0.04 0.04 0.06 0.08 0.08 0.09 0.09 0.10 0.09 0.09 0.07 0.07 0.08 0.09 0.10 0.12 0.11 0.11 0.11 0.09 0.08 0.09 0.11 0.12
0.00 0.00 0.00 0.01 0.01 0.01 0.02 0.02 0.01 0.01 0.01 0.01 0.02 0.02 0.03 0.05 0.05 0.03 0.03 0.04 0.04 0.06 0.09 0.11 0.13 0.13 0.11 0.09 0.09 0.09 0.08 0.10 0.10 0.08 0.08 0.14 0.16 0.14 0.10 0.09 0.11 0.11 0.12
0.00 0.00 0.00 0.01 0.01 0.01 0.01 0.01 0.01 0.01 0.01 0.01 0.01 0.03 0.05 0.05 0.04 0.02 0.04 0.05 0.06 0.06 0.08 0.11 0.14 0.18 0.13 0.09 0.09 0.09 0.08 0.08 0.09 0.05 0.06 0.11 0.14 0.15 0.14 0.13 0.12 0.13 0.13
0.00 0.00 0.00 0.01 0.00 0.00 0.00 0.01 0.01 0.01 0.01 0.01 0.01 0.03 0.04 0.06 0.03 0.02 0.03 0.04 0.04 0.04 0.04 0.07 0.10 0.17 0.16 0.11 0.09 0.11 0.11 0.08 0.09 0.05 0.04 0.05 0.08 0.12 0.14 0.15 0.14 0.14 0.14
0.00 0.00 0.00 0.01 0.01 0.00 0.00 0.01 0.01 0.01 0.01 0.01 0.01 0.01 0.02 0.03 0.01 0.02 0.03 0.03 0.04 0.05 0.04 0.04 0.07 0.11 0.13 0.11 0.10 0.15 0.14 0.08 0.07 0.05 0.04 0.04 0.05 0.08 0.10 0.11 0.11 0.10 0.09
0.00 0.00 0.00 0.01 0.01 0.00 0.00 0.01 0.01 0.01 0.01 0.01 0.01 0.01 0.01 0.01 0.01 0.01 0.02 0.03 0.03 0.04 0.04 0.04 0.05 0.10 0.14 0.13 0.13 0.17 0.16 0.09 0.07 0.06 0.04 0.04 0.05 0.06 0.06 0.07 0.08 0.08 0.06
0.00 0.00 0.01 0.02 0.01 0.01 0.00 0.00 0.00 0.00 0.01 0.01 0.02 0.02 0.01 0.01 0.01 0.01 0.01 0.02 0.03 0.03 0.04 0.05 0.07 0.10 0.11 0.13 0.16 0.15 0.13 0.10 0.08 0.07 0.04 0.04 0.04 0.05 0.05 0.05 0.06 0.06 0.06
0.00 0.00 0.01 0.02 0.01 0.00 0.00 0.00 0.00 0.00 0.01 0.00 0.01 0.01 0.01 0.01 0.02 0.02 0.01 0.02 0.03 0.03 0.06 0.07 0.07 0.07 0.09 0.10 0.11 0.10 0.09 0.07 0.05 0.05 0.03 0.03 0.05 0.06 0.06 0.05 0.06 0.07 0.07
0.00 0.01 0.01 0.01 0.00 0.00 0.00 0.00 0.00 0.00 0.00 0.00 0.01 0.01 0.01 0.01 0.01 0.02 0.02 0.03 0.04 0.05 0.06 0.06 0.06 0.05 0.06 0.07 0.08 0.07 0.05 0.03 0.02 0.03 0.04 0.04 0.06 0.06 0.06 0.06 0.06 0.07 0.08
0.00 0.01 0.01 0.01 0.00 0.00 0.00 0.00 0.00 0.00 0.00 0.01 0.01 0.01 0.00 0.00 0.01 0.02 0.03 0.03 0.04 0.05 0.05 0.07 0.07 0.06 0.04 0.03 0.05 0.06 0.05 0.04 0.02 0.03 0.05 0.07 0.07 0.06 0.05 0.06 0.07 0.07 0.09
0.00 0.00 0.01 0.01 0.00 0.00 0.00 0.00 0.00 0.00 0.00 0.01 0.01 0.00 0.00 0.00 0.01 0.01 0.01 0.03 0.04 0.06 0.06 0.07 0.08 0.04 0.03 0.02 0.02 0.04 0.04 0.05 0.04 0.04 0.05 0.07 0.06 0.05 0.05 0.06 0.06 0.06 0.08
0.00 0.00 0.00 0.01 0.00 0.00 0.00 0.00 0.00 0.00 0.00 0.00 0.01 0.01 0.01 0.01 0.01 0.01 0.01 0.02 0.04 0.06 0.04 0.05 0.07 0.03 0.02 0.02 0.03 0.03 0.02 0.03 0.03 0.04 0.05 0.07 0.07 0.06 0.06 0.07 0.06 0.06 0.06
0.00 0.00 0.01 0.01 0.02 0.01 0.01 0.00 0.00 0.00 0.00 0.00 0.01 0.01 0.01 0.01 0.01 0.01 0.00 0.01 0.04 0.05 0.02 0.03 0.04 0.04 0.03 0.03 0.03 0.04 0.03 0.03 0.03 0.03 0.04 0.08 0.08 0.06 0.07 0.08 0.07 0.07 0.06
0.00 0.01 0.02 0.04 0.05 0.03 0.01 0.01 0.00 0.00 0.00 0.00 0.01 0.02 0.02 0.02 0.01 0.01 0.01 0.01 0.02 0.02 0.01 0.02 0.03 0.04 0.03 0.02 0.03 0.03 0.03 0.03 0.04 0.03 0.03 0.07 0.11 0.09 0.08 0.07 0.09 0.07 0.07
0.00 0.01 0.02 0.03 0.04 0.02 0.01 0.01 0.01 0.01 0.01 0.01 0.01 0.02 0.02 0.02 0.01 0.01 0.02 0.02 0.02 0.02 0.01 0.02 0.03 0.03 0.03 0.03 0.04 0.04 0.03 0.04 0.04 0.04 0.04 0.07 0.11 0.13 0.08 0.06 0.08 0.07 0.07
0.01 0.01 0.02 0.03 0.03 0.02 0.02 0.03 0.02 0.01 0.01 0.02 0.01 0.02 0.02 0.01 0.01 0.01 0.01 0.01 0.02 0.02 0.02 0.02 0.03 0.03 0.03 0.04 0.04 0.04 0.04 0.04 0.04 0.04 0.05 0.08 0.11 0.10 0.08 0.07 0.08 0.07 0.07
0.01 0.01 0.03 0.04 0.03 0.03 0.03 0.03 0.02 0.02 0.02 0.03 0.03 0.02 0.02 0.02 0.01 0.01 0.02 0.02 0.02 0.02 0.02 0.02 0.03 0.03 0.03 0.05 0.04 0.03 0.04 0.04 0.04 0.05 0.07 0.09 0.10 0.08 0.08 0.10 0.09 0.07 0.08
0.01 0.02 0.03 0.06 0.06 0.04 0.04 0.03 0.02 0.02 0.02 0.03 0.03 0.04 0.03 0.02 0.02 0.02 0.02 0.03 0.03 0.02 0.02 0.02 0.03 0.04 0.06 0.05 0.03 0.05 0.06 0.06 0.06 0.05 0.05 0.07 0.08 0.06 0.08 0.11 0.12 0.10 0.09
0.01 0.02 0.03 0.04 0.04 0.04 0.04 0.03 0.02 0.02 0.03 0.03 0.04 0.05 0.04 0.03 0.02 0.02 0.04 0.05 0.05 0.04 0.04 0.03 0.03 0.04 0.05 0.04 0.04 0.05 0.06 0.06 0.06 0.08 0.09 0.08 0.07 0.10 0.10 0.08 0.10 0.10 0.08
0.02 0.04 0.04 0.04 0.03 0.03 0.03 0.02 0.02 0.04 0.05 0.05 0.05 0.05 0.04 0.03 0.03 0.03 0.04 0.04 0.05 0.05 0.05 0.03 0.03 0.04 0.05 0.04 0.03 0.05 0.07 0.07 0.07 0.09 0.10 0.10 0.13 0.13 0.08 0.05 0.05 0.05 0.04
0.03 0.04 0.04 0.02 0.02 0.03 0.03 0.03 0.03 0.04 0.06 0.06 0.06 0.06 0.06 0.05 0.04 0.03 0.03 0.03 0.04 0.05 0.05 0.05 0.05 0.05 0.06 0.03 0.03 0.04 0.05 0.05 0.05 0.06 0.08 0.09 0.11 0.09 0.07 0.05 0.04 0.03 0.04
0.02 0.03 0.02 0.02 0.02 0.03 0.03 0.03 0.04 0.04 0.04 0.05 0.06 0.06 0.08 0.07 0.05 0.04 0.04 0.04 0.04 0.04 0.05 0.06 0.06 0.06 0.06 0.04 0.04 0.03 0.03 0.04 0.03 0.03 0.04 0.05 0.05 0.05 0.04 0.03 0.03 0.03 0.03
0.02 0.02 0.02 0.02 0.02 0.02 0.02 0.03 0.04 0.04 0.05 0.06 0.05 0.05 0.06 0.07 0.04 0.03 0.03 0.03 0.03 0.04 0.04 0.05 0.04 0.05 0.05 0.04 0.03 0.03 0.03 0.04 0.04 0.03 0.03 0.03 0.02 0.02 0.02 0.04 0.05 0.05 0.03
0.02 0.02 0.02 0.03 0.03 0.02 0.02 0.02 0.03 0.04 0.04 0.04 0.03 0.03 0.04 0.05 0.03 0.02 0.02 0.02 0.03 0.03 0.05 0.04 0.03 0.04 0.03 0.03 0.02 0.02 0.03 0.04 0.04 0.03 0.03 0.02 0.01 0.02 0.02 0.02 0.04 0.06 0.06
MSLP
1007.33 1006.74 1006.35 1006.18 1006.20 1006.31 1006.41 1006.41 1006.24 1005.89 1005.41 1004.88 1004.40 1004.08 1003.95 1004.06 1004.36 1004.80 1005.31 1005.83 1006.29 1006.72 1007.10 1007.49 1007.90 1008.38 1008.91 1009.50 1010.12 1010.73 1011.31 1011.85 1012.33 1012.77 1013.16 1013.53 1013.86 1014.15 1014.41 1014.63 1014.83 1015.01 1015.20
1007.37 1006.79 1006.41 1006.24 1006.25 1006.35 1006.45 1006.44 1006.29 1005.98 1005.54 1005.07 1004.66 1004.39 1004.30 1004.41 1004.69 1005.09 1005.54 1005.98 1006.40 1006.79 1007.16 1007.55 1007.98 1008.47 1009.01 1009.59 1010.18 1010.75 1011.30 1011.80 1012.26 1012.69 1013.09 1013.47 1013.83 1014.15 1014.44 1014.68 1014.90 1015.10 1015.31
1007.36 1006.82 1006.47 1006.31 1006.33 1006.43 1006.52 1006.52 1006.39 1006.12 1005.74 1005.34 1005.00 1004.78 1004.72 1004.83 1005.08 1005.41 1005.79 1006.16 1006.52 1006.87 1007.22 1007.61 1008.05 1008.55 1009.10 1009.66 1010.23 1010.77 1011.27 1011.74 1012.18 1012.61 1013.02 1013.43 1013.82 1014.18 1014.50 1014.79 1015.04 1015.27 1015.51
1007.31 1006.85 1006.55 1006.43 1006.46 1006.56 1006.65 1006.65 1006.53 1006.29 1005.97 1005.63 1005.35 1005.19 1005.16 1005.27 1005.49 1005.77 1006.08 1006.38 1006.68 1006.99 1007.33 1007.73 1008.18 1008.69 1009.23 1009.79 1010.32 1010.82 1011.29 1011.73 1012.15 1012.57 1013.00 1013.43 1013.86 1014.26 1014.63 1014.96 1015.25 1015.52 1015.79
1007.27 1006.91 1006.68 1006.62 1006.67 1006.76 1006.84 1006.82 1006.70 1006.47 1006.18 1005.90 1005.68 1005.57 1005.58 1005.70 1005.90 1006.15 1006.41 1006.67 1006.93 1007.22 1007.55 1007.95 1008.41 1008.93 1009.47 1010.00 1010.51 1010.97 1011.40 1011.80 1012.20 1012.61 1013.05 1013.51 1013.96 1014.40 1014.81 1015.17 1015.50 1015.80 1016.11
1007.30 1007.04 1006.90 1006.89 1006.96 1007.05 1007.09 1007.04 1006.89 1006.65 1006.37 1006.13 1005.96 1005.90 1005.95 1006.10 1006.31 1006.55 1006.79 1007.03 1007.28 1007.57 1007.90 1008.31 1008.78 1009.30 1009.83 1010.34 1010.81 1011.23 1011.62 1011.98 1012.35 1012.76 1013.19 1013.66 1014.13 1014.60 1015.02 1015.41 1015.76 1016.08 1016.40
1007.45 1007.29 1007.23 1007.26 1007.34 1007.41 1007.40 1007.29 1007.09 1006.82 1006.54 1006.32 1006.19 1006.18 1006.29 1006.48 1006.72 1006.98 1007.23 1007.48 1007.73 1008.03 1008.37 1008.79 1009.27 1009.78 1010.29 1010.77 1011.20 1011.58 1011.92 1012.25 1012.59 1012.98 1013.41 1013.87 1014.35 1014.81 1015.24 1015.63 1015.98 1016.30 1016.62
1007.76 1007.66 1007.66 1007.72 1007.79 1007.82 1007.75 1007.58 1007.32 1007.01 1006.72 1006.50 1006.41 1006.44 1006.60 1006.84 1007.12 1007.41 1007.69 1007.96 1008.23 1008.54 1008.90 1009.32 1009.80 1010.30 1010.79 1011.24 1011.63 1011.97 1012.27 1012.56 1012.88 1013.24 1013.65 1014.10 1014.57 1015.02 1015.44 1015.81 1016.14 1016.44 1016.75
1008.21 1008.15 1008.17 1008.23 1008.28 1008.26 1008.13 1007.89 1007.58 1007.23 1006.93 1006.72 1006.65 1006.72 1006.91 1007.19 1007.50 1007.82 1008.12 1008.40 1008.69 1009.02 1009.39 1009.82 1010.29 1010.78 1011.25 1011.67 1012.03 1012.33 1012.60 1012.86 1013.15 1013.49 1013.88 1014.32 1014.77 1015.20 1015.60 1015.94 1016.25 1016.53 1016.81
1008.77 1008.70 1008.71 1008.75 1008.76 1008.69 1008.51 1008.22 1007.86 1007.50 1007.19 1006.99 1006.93 1007.02 1007.23 1007.52 1007.84 1008.17 1008.47 1008.75 1009.05 1009.38 1009.76 1010.19 1010.66 1011.14 1011.60 1012.00 1012.34 1012.62 1012.86 1013.10 1013.37 1013.69 1014.07 1014.49 1014.92 1015.34 1015.72 1016.04 1016.33 1016.58 1016.84
1009.40 1009.28 1009.25 1009.24 1009.20 1009.08 1008.86 1008.55 1008.18 1007.81 1007.51 1007.32 1007.28 1007.37 1007.57 1007.84 1008.14 1008.43 1008.71 1008.98 1009.26 1009.59 1009.97 1010.40 1010.88 1011.36 1011.82 1012.21 1012.54 1012.81 1013.04 1013.26 1013.52 1013.83 1014.19 1014.60 1015.03 1015.44 1015.81 1016.14 1016.41 1016.66 1016.91
1010.03 1009.86 1009.76 1009.69 1009.59 1009.43 1009.18 1008.86 1008.50 1008.15 1007.87 1007.71 1007.67 1007.75 1007.93 1008.15 1008.39 1008.62 1008.85 1009.08 1009.34 1009.65 1010.03 1010.47 1010.96 1011.46 1011.92 1012.32 1012.65 1012.92 1013.14 1013.35 1013.60 1013.89 1014.25 1014.65 1015.08 1015.51 1015.89 1016.24 1016.53 1016.79 1017.04
1010.67 1010.41 1010.23 1010.08 1009.93 1009.72 1009.46 1009.14 1008.81 1008.51 1008.27 1008.13 1008.10 1008.16 1008.28 1008.44 1008.60 1008.76 1008.92 1009.10 1009.33 1009.63 1010.01 1010.47 1010.98 1011.49 1011.98 1012.39 1012.73 1013.00 1013.21 1013.41 1013.64 1013.92 1014.26 1014.66 1015.10 1015.54 1015.96 1016.35 1016.68 1016.98 1017.25
1011.30 1010.96 1010.69 1010.45 1010.23 1009.98 1009.70 1009.40 1009.11 1008.85 1008.66 1008.56 1008.53 1008.56 1008.63 1008.72 1008.81 1008.89 1008.99 1009.12 1009.32 1009.62 1010.01 1010.48 1011.01 1011.55 1012.06 1012.49 1012.84 1013.10 1013.30 1013.48 1013.67 1013.92 1014.25 1014.64 1015.08 1015.55 1016.02 1016.45 1016.84 1017.19 1017.51
1011.96 1011.53 1011.17 1010.84 1010.53 1010.22 1009.92 1009.64 1009.38 1009.18 1009.03 1008.95 1008.93 1008.94 1008.97 1009.00 1009.02 1009.05 1009.10 1009.21 1009.40 1009.69 1010.10 1010.60 1011.15 1011.72 1012.24 1012.68 1013.02 1013.27 1013.45 1013.59 1013.75 1013.96 1014.24 1014.62 1015.06 1015.54 1016.05 1016.54 1016.99 1017.40 1017.77
1012.69 1012.18 1011.71 1011.28 1010.87 1010.50 1010.16 1009.87 1009.63 1009.46 1009.35 1009.30 1009.28 1009.28 1009.29 1009.28 1009.27 1009.27 1009.31 1009.41 1009.61 1009.92 1010.35 1010.87 1011.44 1012.01 1012.53 1012.97 1013.30 1013.52 1013.67 1013.77 1013.88 1014.04 1014.28 1014.62 1015.04 1015.53 1016.06 1016.59 1017.10 1017.56 1017.97
1013.49 1012.91 1012.34 1011.80 1011.29 1010.83 1010.44 1010.12 1009.87 1009.71 1009.62 1009.58 1009.57 1009.57 1009.57 1009.56 1009.55 1009.55 1009.61 1009.74 1009.96 1010.30 1010.74 1011.27 1011.83 1012.39 1012.90 1013.32 1013.63 1013.83 1013.95 1014.02 1014.09 1014.20 1014.39 1014.69 1015.08 1015.55 1016.08 1016.63 1017.16 1017.66 1018.10
1014.37 1013.71 1013.05 1012.40 1011.78 1011.23 1010.76 1010.39 1010.12 1009.95 1009.85 1009.81 1009.80 1009.80 1009.81 1009.82 1009.84 1009.88 1009.98 1010.15 1010.41 1010.77 1011.22 1011.73 1012.28 1012.81 1013.28 1013.67 1013.96 1014.15 1014.25 1014.31 1014.35 1014.44 1014.60 1014.85 1015.20 1015.64 1016.14 1016.67 1017.21 1017.72 1018.17
1015.26 1014.55 1013.80 1013.05 1012.33 1011.69 1011.14 1010.70 1010.38 1010.17 1010.05 1009.99 1009.97 1009.97 1010.00 1010.04 1010.10 1010.21 1010.36 1010.59 1010.89 1011.26 1011.70 1012.18 1012.68 1013.16 1013.60 1013.96 1014.23 1014.42 1014.54 1014.61 1014.67 1014.76 1014.90 1015.13 1015.44 1015.83 1016.29 1016.78 1017.29 1017.77 1018.21
1016.12 1015.37 1014.55 1013.72 1012.91 1012.19 1011.56 1011.06 1010.68 1010.41 1010.24 1010.14 1010.09 1010.09 1010.13 1010.20 1010.32 1010.49 1010.71 1010.98 1011.31 1011.69 1012.10 1012.54 1012.97 1013.39 1013.78 1014.11 1014.39 1014.61 1014.78 1014.91 1015.03 1015.16 1015.32 1015.54 1015.82 1016.16 1016.55 1016.99 1017.43 1017.86 1018.26
1016.88 1016.10 1015.24 1014.35 1013.50 1012.71 1012.03 1011.46 1011.02 1010.68 1010.44 1010.28 1010.19 1010.16 1010.20 1010.30 1010.46 1010.69 1010.96 1011.28 1011.63 1012.00 1012.37 1012.75 1013.11 1013.47 1013.80 1014.12 1014.42 1014.70 1014.95 1015.18 1015.40 1015.61 1015.83 1016.06 1016.32 1016.62 1016.94 1017.29 1017.66 1018.02 1018.36
1017.51 1016.71 1015.84 1014.94 1014.06 1013.24 1012.52 1011.91 1011.40 1010.99 1010.67 1010.43 1010.28 1010.20 1010.22 1010.33 1010.52 1010.78 1011.10 1011.45 1011.82 1012.17 1012.50 1012.82 1013.11 1013.41 1013.71 1014.02 1014.36 1014.71 1015.07 1015.42 1015.77 1016.08 1016.38 1016.65 1016.91 1017.16 1017.41 1017.67 1017.94 1018.21 1018.48
1018.00 1017.21 1016.35 1015.46 1014.59 1013.78 1013.05 1012.40 1011.83 1011.34 1010.93 1010.60 1010.36 1010.23 1010.20 1010.29 1010.49 1010.78 1011.13 1011.51 1011.88 1012.22 1012.52 1012.79 1013.03 1013.27 1013.55 1013.87 1014.25 1014.68 1015.15 1015.63 1016.10 1016.53 1016.91 1017.23 1017.49 1017.70 1017.89 1018.06 1018.23 1018.41 1018.60
1018.38 1017.61 1016.79 1015.94 1015.11 1014.32 1013.59 1012.92 1012.30 1011.74 1011.24 1010.80 1010.46 1010.24 1010.15 1010.21 1010.39 1010.69 1011.07 1011.47 1011.85 1012.20 1012.48 1012.72 1012.93 1013.15 1013.40 1013.73 1014.15 1014.64 1015.20 1015.79 1016.37 1016.90 1017.35 1017.71 1017.97 1018.16 1018.28 1018.37 1018.45 1018.53 1018.65
1018.70 1017.97 1017.19 1016.40 1015.62 1014.87 1014.16 1013.47 1012.81 1012.17 1011.56 1011.02 1010.57 1010.25 1010.08 1010.08 1010.24 1010.54 1010.93 1011.35 1011.77 1012.13 1012.43 1012.67 1012.88 1013.08 1013.34 1013.67 1014.11 1014.64 1015.25 1015.90 1016.55 1017.14 1017.64 1018.02 1018.28 1018.44 1018.51 1018.53 1018.53 1018.54 1018.59
1019.01 1018.32 1017.59 1016.86 1016.14 1015.42 1014.72 1014.02 1013.31 1012.60 1011.90 1011.25 1010.69 1010.26 1010.00 1009.93 1010.05 1010.33 1010.73 1011.19 1011.64 1012.04 1012.38 1012.66 1012.89 1013.11 1013.37 1013.71 1014.14 1014.68 1015.30 1015.96 1016.62 1017.22 1017.73 1018.12 1018.37 1018.50 1018.54 1018.51 1018.46 1018.42 1018.42
Thickness
5786 5786 5784 5781 5779 5777 5776 5775 5774 5774 5773 5773 5772 5772 5772 5771 5770 5770 5770 5770 5769 5768 5768 5767 5766 5765 5765 5764 5764 5763 5763 5762 5761 5761 5761 5761 5760 5759 5758 5757 5755 5753 5752
5790 5787 5784 5781 5778 5776 5775 5774 5773 5772 5772 5771 5771 5770 5770 5770 5769 5768 5768 5768 5767 5766 5766 5765 5764 5763 5762 5762 5762 5761 5760 5760 5759 5759 5759 5758 5758 5758 5757 5755 5753 5751 5751
5791 5787 5784 5780 5778 5776 5774 5773 5772 5771 5770 5770 5769 5769 5768 5768 5767 5767 5766 5766 5765 5764 5764 5763 5762 5761 5760 5760 5760 5759 5758 5758 5757 5757 5756 5756 5756 5755 5754 5753 5751 5750 5749
5790 5786 5783 5780 5777 5775 5773 5772 5771 5770 5769 5768 5767 5766 5766 5766 5765 5765 5764 5764 5763 5762 5761 5761 5760 5759 5758 5758 5758 5757 5757 5756 5755 5755 5754 5753 5753 5753 5752 5751 5749 5748 5747
5788 5785 5782 5779 5776 5774 5772 5771 5769 5768 5767 5766 5765 5765 5764 5764 5763 5763 5763 5762 5762 5760 5759 5758 5758 5757 5756 5756 5756 5755 5755 5754 5753 5752 5751 5750 5750 5750 5750 5749 5747 5746 5745
5787 5783 5780 5778 5775 5773 5771 5770 5768 5767 5765 5764 5763 5762 5762 5762 5761 5761 5761 5760 5759 5758 5758 5757 5756 5755 5754 5754 5754 5753 5753 5752 5751 5749 5748 5748 5748 5748 5747 5746 5744 5743 5742
5785 5782 5779 5777 5774 5771 5770 5768 5767 5765 5764 5763 5762 5761 5760 5760 5759 5759 5758 5758 5757 5756 5756 5755 5754 5753 5752 5751 5752 5751 5751 5750 5749 5747 5746 5745 5745 5745 5744 5743 5742 5741 5740
5783 5780 5778 5775 5772 5770 5768 5767 5766 5764 5763 5761 5760 5759 5758 5758 5757 5757 5756 5756 5755 5754 5754 5753 5751 5751 5750 5750 5749 5749 5749 5748 5746 5745 5744 5743 5743 5743 5742 5741 5740 5739 5738
5781 5778 5776 5773 5771 5769 5767 5766 5764 5763 5762 5760 5759 5758 5757 5756 5755 5755 5754 5754 5753 5752 5751 5750 5750 5749 5749 5748 5747 5746 5746 5745 5743 5743 5742 5741 5741 5740 5740 5739 5738 5737 5736
5779 5776 5774 5771 5769 5767 5766 5764 5763 5761 5760 5759 5758 5756 5755 5754 5753 5753 5752 5752 5751 5751 5750 5749 5748 5747 5747 5746 5745 5744 5743 5742 5741 5740 5740 5740 5739 5739 5738 5737 5736 5736 5735
5776 5774 5772 5770 5768 5766 5765 5763 5761 5760 5758 5757 5756 5755 5753 5752 5751 5751 5750 5749 5749 5749 5748 5747 5746 5746 5745 5744 5743 5743 5741 5740 5740 5739 5739 5738 5738 5737 5736 5736 5735 5734 5734
5773 5772 5771 5769 5767 5765 5763 5762 5760 5758 5757 5755 5754 5753 5752 5750 5749 5748 5748 5747 5747 5746 5746 5745 5745 5744 5743 5742 5741 5740 5739 5739 5738 5738 5738 5737 5737 5736 5736 5735 5734 5733 5732
5774 5772 5770 5768 5766 5763 5761 5760 5758 5757 5755 5753 5752 5751 5750 5749 5747 5746 5745 5744 5744 5744 5743 5743 5743 5742 5741 5740 5739 5738 5737 5737 5736 5736 5736 5736 5735 5735 5735 5734 5733 5732 5731
5772 5771 5769 5767 5764 5762 5760 5758 5756 5755 5754 5752 5751 5749 5748 5746 5745 5744 5743 5742 5741 5741 5741 5741 5740 5740 5739 5738 5737 5736 5735 5735 5734 5734 5734 5734 5734 5734 5733 5733 5731 5730 5729
5771 5770 5768 5766 5763 5761 5759 5757 5755 5753 5752 5751 5750 5748 5746 5745 5743 5742 5741 5740 5739 5739 5738 5738 5738 5737 5737 5736 5735 5734 5734 5733 5733 5732 5732 5733 5733 5732 5732 5731 5730 5729 5728
5771 5770 5768 5766 5764 5761 5758 5757 5755 5753 5751 5750 5748 5747 5745 5744 5742 5741 5739 5738 5737 5736 5736 5736 5735 5735 5734 5733 5733 5732 5732 5731 5731 5731 5731 5731 5731 5730 5730 5730 5729 5728 5727
5772 5770 5768 5767 5764 5762 5759 5756 5755 5752 5751 5749 5747 5745 5744 5742 5741 5739 5738 5736 5735 5734 5734 5734 5733 5732 5731 5731 5730 5730 5730 5730 5729 5729 5729 5729 5729 5728 5728 5728 5728 5727 5726
5771 5769 5768 5767 5764 5761 5759 5756 5754 5752 5750 5748 5746 5744 5743 5742 5740 5738 5736 5735 5734 5733 5732 5731 5730 5729 5728 5727 5727 5727 5727 5727 5727 5727 5727 5727 5727 5726 5726 5725 5725 5725 5724
5771 5768 5766 5764 5761 5759 5757 5754 5752 5750 5748 5747 5745 5743 5742 5740 5739 5737 5735 5733 5732 5731 5730 5730 5728 5727 5725 5724 5724 5724 5724 5724 5725 5725 5725 5725 5724 5723 5723 5722 5722 5722 5721
5770 5767 5765 5762 5759 5757 5755 5752 5749 5748 5746 5745 5744 5742 5741 5739 5738 5736 5734 5732 5731 5729 5728 5727 5725 5724 5723 5722 5722 5721 5721 5721 5721 5721 5722 5721 5720 5720 5720 5719 5719 5719 5719
5767 5765 5762 5759 5757 5755 5752 5749 5746 5744 5744 5743 5742 5741 5740 5738 5737 5735 5732 5730 5729 5727 5726 5725 5723 5721 5719 5719 5718 5715 5716 5717 5717 5718 5718 5718 5717 5717 5717 5716 5716 5716 5715
5765 5762 5759 5757 5755 5754 5752 5750 5747 5745 5743 5742 5741 5740 5738 5737 5735 5734 5731 5729 5727 5726 5724 5723 5721 5718 5716 5716 5714 5711 5709 5710 5712 5714 5714 5714 5714 5714 5714 5713 5713 5713 5712
5763 5761 5760 5757 5755 5754 5752 5748 5745 5742 5740 5738 5737 5737 5736 5735 5733 5732 5730 5728 5726 5725 5722 5721 5720 5717 5713 5713 5713 5710 5705 5702 5704 5708 5709 5710 5710 5710 5710 5710 5710 5710 5709
5763 5762 5759 5756 5754 5752 5750 5746 5742 5739 5737 5736 5736 5735 5734 5733 5732 5730 5728 5726 5724 5723 5721 5720 5718 5716 5714 5711 5710 5709 5708 5706 5702 5701 5704 5705 5706 5706 5706 5707 5707 5707 5707
5762 5760 5758 5755 5752 5750 5748 5745 5742 5739 5738 5736 5734 5733 5732 5731 5730 5728 5727 5725 5723 5721 5719 5718 5716 5715 5713 5710 5708 5707 5705 5703 5702 5699 5697 5699 5700 5702 5703 5703 5704 5704 5704
5759 5758 5756 5753 5750 5749 5747 5744 5741 5738 5736 5734 5732 5730 5729 5728 5727 5726 5725 5723 5721 5719 5718 5716 5715 5713 5711 5709 5707 5706 5704 5701 5699 5697 5694 5694 5694 5697 5699 5700 5701 5701 5701